SCP
0 0 0 0 0 0 0 0 0 0 0 0 0 0 0 0 0 0 0 0 1 1 1 1 1 0 0 0 0 0 0 0 0 0 0 0 0 0 0 0 0 0 0
0 0 0 0 0 0 0 0 0 0 0 0 0 0 0 0 0 0 0 0 0 1 1 1 1 1 0 0 0 0 0 0 0 0 0 0 0 0 0 0 0 0 0
0 0 0 0 0 0 0 0 0 0 0 0 0 0 0 0 0 0 0 0 0 0 1 1 1 1 1 1 0 0 0 0 0 0 0 0 0 0 0 0 0 0 0
0 0 0 0 0 0 0 0 0 0 0 0 0 0 0 0 0 0 0 0 0 0 0 0 1 1 1 1 1 1 1 1 1 0 0 0 0 0 0 0 0 0 0
0 0 0 0 0 0 0 0 0 0 0 0 0 0 0 0 0 0 0 0 0 0 0 0 0 1 1 1 1 1 1 1 1 1 0 0 0 0 0 0 0 0 0
0 0 0 0 0 0 0 0 0 0 0 0 0 0 0 0 0 0 0 0 0 0 0 0 0 0 0 1 1 1 1 1 1 1 1 0 0 0 0 0 0 0 0
0 0 0 0 0 0 0 0 0 0 0 0 0 0 0 0 0 0 0 0 0 0 0 0 0 0 0 0 1 1 1 1 1 1 1 1 1 0 0 0 0 0 0
0 0 0 0 0 0 0 0 0 0 0 0 0 0 0 0 0 0 0 0 0 0 0 0 0 0 0 0 1 1 1 1 1 1 1 1 1 1 1 0 0 0 0
0 0 0 0 0 0 0 0 0 0 0 0 0 0 0 0 0 0 0 0 0 0 0 0 0 0 0 0 0 1 1 1 1 1 1 1 1 1 1 1 0 0 0
0 0 0 0 0 0 0 0 0 0 0 0 0 0 0 0 0 0 0 0 0 0 0 0 0 0 0 0 0 0 1 1 1 1 1 1 1 1 1 1 1 0 0
0 0 0 0 0 0 0 0 0 0 0 0 0 0 0 0 0 0 0 0 0 0 0 0 0 0 0 0 0 0 0 0 1 1 1 1 1 1 1 1 1 0 0
0 0 0 0 0 0 0 0 0 0 0 0 0 0 0 0 0 0 0 0 0 0 0 0 0 0 0 0 0 0 0 0 0 0 1 1 1 1 1 1 1 1 1
0 0 0 0 0 0 0 0 0 0 0 0 0 0 0 0 0 0 0 0 0 0 0 0 0 0 0 0 0 0 0 0 0 0 0 0 1 1 1 1 1 1 1
0 0 0 0 0 0 0 0 0 0 0 0 0 0 0 0 0 0 0 0 0 0 0 0 0 0 0 0 0 0 0 0 0 0 0 0 0 1 1 1 1 1 1
0 0 0 0 0 0 0 0 0 0 0 0 0 0 0 0 0 0 0 0 0 0 0 0 0 0 0 0 0 0 0 0 0 0 0 0 0 0 0 0 1 1 1
0 0 0 0 0 0 0 0 0 0 0 0 0 0 0 0 0 0 0 0 0 0 0 0 0 0 0 0 0 0 0 0 0 0 0 0 0 0 0 0 0 0 0
0 0 0 0 0 0 0 0 0 0 0 0 0 0 0 0 0 0 0 0 0 0 0 0 0 0 0 0 0 0 0 0 0 0 0 0 0 0 0 0 0 0 0
0 0 0 0 0 0 0 0 0 0 0 0 0 0 0 0 0 0 0 0 0 0 0 0 0 0 0 0 0 0 0 0 0 0 0 0 0 0 0 0 0 0 0
0 0 0 0 0 0 0 0 0 0 0 0 0 0 0 0 0 0 0 0 0 0 0 0 0 0 0 0 0 0 0 0 0 0 0 0 0 0 0 0 0 0 0
0 0 0 0 0 0 0 0 0 0 0 0 0 0 0 0 0 0 0 0 0 0 0 0 0 0 0 0 0 0 0 0 0 0 0 0 0 0 0 0 0 0 0
0 0 0 0 0 0 0 0 0 0 0 0 0 0 0 0 0 0 0 0 0 0 0 0 0 0 0 0 0 0 0 0 0 0 0 0 0 0 0 0 0 0 0
0 0 0 0 0 0 0 0 0 0 0 0 0 0 0 0 0 0 0 0 0 0 0 0 0 0 0 0 0 0 0 0 0 0 0 0 0 0 0 0 0 0 0
0 0 0 0 0 0 0 0 0 0 0 0 0 0 0 0 0 0 0 0 0 0 0 0 0 0 0 0 0 0 0 0 0 0 0 0 0 0 0 0 0 0 0
0 0 0 0 0 0 0 0 0 0 0 0 0 0 0 0 0 0 0 0 0 0 0 0 0 0 0 0 0 0 0 0 0 0 0 0 0 0 0 0 0 0 0
0 0 0 0 0 0 0 0 0 0 0 0 0 0 0 0 0 0 0 0 0 0 0 0 0 0 0 0 0 0 0 0 0 0 0 0 0 0 0 0 0 0 0
0 0 0 0 0 0 0 0 0 0 0 0 0 0 0 0 0 0 0 0 0 0 0 0 0 0 0 0 0 0 0 0 0 0 0 0 0 0 0 0 0 0 0
Wind_Speed
2 2 2 2 2 2 3 3 3 4 4 4 4 5 4 4 3 3 3 11 15 15 17 18 18 18 18 18 17 17 17 17 16 14 14 15 15 14 14 13 13 12 12
2 1 1 2 2 2 3 3 4 4 3 3 4 4 4 4 4 4 4 7 15 16 17 17 19 20 20 20 19 18 18 17 16 16 15 15 15 15 14 14 14 13 12
2 1 1 1 2 2 2 2 3 2 3 3 3 4 4 4 5 5 5 5 7 14 17 18 18 19 20 20 20 20 19 17 17 17 16 15 15 15 15 14 14 13 12
2 2 1 1 1 1 1 2 2 2 2 2 3 3 3 3 5 6 5 6 5 7 13 18 18 18 20 21 21 21 20 19 18 18 18 17 17 16 16 15 15 14 13
3 2 1 1 0 0 1 1 1 2 2 3 3 4 4 4 5 6 6 7 7 7 7 12 18 18 20 21 22 22 21 21 19 20 20 20 19 17 17 16 15 15 14
2 2 1 0 1 0 0 1 1 1 2 2 3 3 3 4 4 5 7 6 7 9 8 8 8 12 19 20 20 21 22 22 21 21 21 21 20 19 18 17 17 16 16
2 2 1 1 1 1 0 1 1 1 1 0 0 2 3 4 5 5 5 5 6 8 8 8 7 6 7 17 20 21 23 23 23 22 22 21 21 20 19 19 18 17 17
1 2 2 1 1 1 2 1 1 0 1 0 1 0 3 4 3 4 3 4 6 5 7 9 8 8 7 6 11 20 22 23 23 23 23 22 21 20 20 20 19 19 18
1 1 2 2 2 2 1 1 1 1 0 1 0 2 1 2 3 3 2 3 3 3 5 5 8 9 10 7 7 14 20 20 21 23 23 22 21 20 21 21 21 20 19
3 2 3 3 2 2 2 1 1 1 1 1 1 1 2 3 2 4 4 3 3 4 4 5 6 7 8 7 9 12 17 18 20 22 23 23 22 22 21 22 22 22 21
4 4 4 3 3 2 1 1 1 1 1 1 1 1 1 1 2 2 4 4 3 3 3 4 4 4 6 7 7 10 15 17 18 20 22 23 24 24 23 24 24 24 23
3 4 3 3 2 2 1 1 1 1 1 1 1 1 1 1 1 2 3 3 3 4 3 3 3 4 5 6 9 13 15 16 17 18 20 22 23 24 24 25 26 25 25
2 3 3 2 1 1 1 1 1 1 1 1 2 2 2 3 2 2 2 3 3 3 3 2 3 3 4 4 5 11 12 15 16 17 18 19 20 21 23 24 25 25 25
0 1 2 2 2 2 1 1 1 2 2 2 3 2 2 3 2 3 3 2 2 3 3 4 3 2 2 3 5 8 8 13 15 15 15 16 17 17 19 20 22 22 22
1 1 2 2 2 2 2 2 1 3 2 2 3 3 2 3 2 3 3 3 3 3 4 4 3 2 2 3 5 5 6 10 12 13 14 14 15 15 17 18 19 20 20
1 1 2 2 3 3 3 2 2 3 3 3 3 3 3 3 3 3 3 3 3 4 4 3 3 3 3 3 5 5 6 9 12 13 14 15 15 15 15 17 18 19 19
1 2 2 3 3 3 3 2 3 3 3 4 3 3 4 4 3 3 3 2 3 3 4 4 3 3 3 3 3 3 4 5 6 12 13 14 14 15 15 16 17 18 19
2 3 3 3 3 3 3 3 4 4 3 4 4 4 5 4 4 3 3 4 3 4 4 5 3 3 4 4 4 4 4 4 5 9 12 14 14 15 15 16 16 17 17
3 3 3 3 4 4 4 4 3 4 4 4 5 5 5 4 5 4 4 4 4 4 3 4 4 3 3 3 2 3 3 3 4 6 10 11 13 14 14 15 16 16 17
3 3 3 4 4 4 4 3 3 3 4 4 5 5 5 5 6 6 5 5 5 4 3 3 4 3 3 3 1 2 3 2 3 3 5 6 9 12 13 15 16 17 17
4 3 3 4 4 4 4 4 3 4 4 5 5 5 6 8 9 7 5 5 5 4 3 3 4 3 3 2 3 2 3 3 3 3 2 3 3 4 7 11 14 16 16
4 3 4 4 5 4 5 7 5 4 4 5 6 6 7 8 9 10 10 9 8 7 6 4 4 5 5 5 3 3 2 2 3 2 2 3 3 4 4 5 9 13 15
3 4 5 5 5 7 10 10 9 5 5 5 6 6 6 7 7 5 8 9 8 11 11 7 7 7 6 6 5 4 4 4 4 3 2 3 2 3 3 5 10 12 13
4 4 5 6 6 8 10 10 10 6 5 6 6 6 6 7 7 6 6 6 6 6 7 7 7 8 8 6 6 6 5 4 3 3 3 3 2 2 2 3 7 10 12
5 5 5 6 6 8 10 11 9 4 5 7 6 6 6 6 9 9 6 6 7 7 8 10 10 10 11 11 7 3 3 3 4 3 3 3 2 2 1 2 4 8 10
5 5 6 6 6 7 10 10 8 3 5 5 5 6 8 8 9 8 5 5 6 7 5 5 5 7 7 8 10 8 6 5 3 3 4 4 3 2 2 1 1 2 4
Wind_Direction
193 198 195 184 188 186 190 195 208 221 222 218 212 208 205 211 215 223 219 206 202 200 199 197 196 194 194 193 191 191 190 188 185 182 180 178 176 175 173 171 168 165 164
177 182 183 177 192 195 193 194 207 215 222 219 219 211 208 209 213 215 218 212 208 207 210 206 203 201 200 199 197 197 196 194 191 188 186 184 182 181 181 180 177 173 171
150 143 160 193 207 198 194 198 212 204 215 222 231 234 225 215 214 211 209 209 210 215 215 214 212 207 205 204 202 201 200 198 194 193 192 190 187 185 186 186 184 181 179
142 135 155 215 224 185 186 194 203 210 225 232 244 251 244 227 226 217 207 208 208 217 221 219 217 214 211 210 208 206 204 202 199 197 196 195 193 190 190 190 189 187 185
140 136 159 213 197 166 203 217 190 193 215 232 240 244 244 240 233 229 218 213 209 212 215 222 221 219 216 214 213 210 207 206 203 202 200 200 199 196 194 193 192 191 190
130 127 140 187 132 117 302 245 222 212 211 222 249 262 255 248 237 227 225 218 211 213 215 219 220 225 222 218 216 213 211 209 207 206 205 204 204 201 198 196 195 195 195
123 117 101 79 98 117 275 274 220 260 271 210 66 310 293 261 243 239 230 218 216 214 212 215 214 216 222 223 219 217 215 212 210 208 207 207 207 204 202 200 199 199 199
114 135 132 126 111 87 35 21 61 48 314 73 133 42 325 324 301 256 240 227 227 216 217 218 212 212 217 215 218 219 219 216 212 210 208 208 207 206 205 204 203 202 201
34 106 122 123 103 99 77 51 78 111 319 332 130 149 166 269 308 310 280 255 243 227 225 221 216 215 213 212 212 219 219 217 215 213 211 209 207 206 206 207 206 205 204
25 66 87 92 90 90 80 39 84 113 129 311 321 230 202 202 239 307 314 301 276 251 242 235 227 217 213 209 213 213 216 217 217 216 214 212 209 208 207 208 209 209 208
34 48 64 67 67 67 64 39 31 56 138 187 222 267 274 261 206 217 287 309 313 275 252 238 232 226 220 213 212 217 215 216 218 219 218 215 212 210 210 210 212 213 212
20 30 55 56 51 39 22 2 349 346 297 245 228 214 206 225 238 224 255 282 289 282 269 246 233 231 227 217 221 221 217 216 217 220 222 219 216 213 212 213 214 216 215
10 8 32 30 15 346 349 16 360 327 306 290 265 244 225 222 216 212 228 266 282 289 294 277 245 234 233 224 228 228 223 218 216 219 223 222 218 216 214 213 215 216 217
283 336 19 9 348 338 340 341 309 294 292 293 287 277 262 253 225 211 211 226 283 298 295 281 280 242 237 228 234 231 233 222 216 216 219 222 220 217 216 214 215 215 216
242 352 350 341 329 324 320 318 290 290 299 286 279 278 270 263 251 231 214 198 204 251 275 279 286 276 249 233 230 222 229 226 217 215 217 222 223 219 217 215 214 213 212
316 328 321 315 311 310 308 302 285 284 289 284 272 278 278 271 274 259 235 218 201 204 241 259 256 270 272 259 238 227 228 229 224 220 219 221 222 220 218 216 214 213 211
277 286 287 292 296 297 299 291 280 281 281 285 288 283 278 273 271 269 257 238 223 202 237 266 258 270 270 267 271 248 237 224 225 225 224 225 225 223 220 218 216 214 212
269 270 277 286 287 288 288 279 279 287 276 276 279 282 280 283 275 267 258 251 242 222 219 254 269 269 261 260 255 250 245 229 222 226 224 224 224 223 222 219 216 215 214
271 278 279 276 277 279 278 272 265 273 271 267 269 269 270 275 274 268 259 253 248 247 218 229 254 253 265 272 275 269 259 248 235 229 224 225 223 223 223 220 217 216 215
259 270 270 267 266 268 268 267 265 272 277 277 272 267 266 260 258 262 261 252 247 247 235 229 244 252 258 270 256 261 274 260 252 244 230 224 225 226 226 222 219 216 214
259 260 265 272 272 264 252 243 255 262 268 277 280 276 272 271 264 259 260 246 240 236 233 227 235 246 249 254 243 237 247 268 268 244 238 231 220 223 224 224 222 218 214
268 268 266 265 269 265 257 251 247 251 260 266 276 280 282 280 278 277 276 264 237 227 225 222 226 228 237 231 228 230 229 243 273 255 214 242 206 220 222 219 219 215 213
260 267 268 263 263 265 264 263 259 243 249 257 263 272 282 284 287 280 283 284 271 252 232 217 222 228 230 222 213 228 223 217 232 234 199 249 223 229 230 228 219 216 213
253 258 262 263 263 267 265 260 260 249 250 256 257 258 261 273 279 274 274 276 270 267 251 234 225 232 234 227 211 216 225 232 245 239 192 230 223 228 240 231 221 216 213
259 259 260 262 262 270 268 262 254 241 252 263 264 264 259 262 271 276 267 266 271 273 268 255 240 241 242 238 217 199 210 211 239 242 204 205 213 210 241 244 229 215 212
254 265 269 264 260 265 270 265 250 225 250 265 272 270 265 261 271 275 253 250 262 266 271 276 264 260 251 245 226 209 203 206 213 235 215 193 196 177 228 255 220 202 201